[[{"header":{"parameterUnit":"m.s-1","parameterCategory":1,"la1":30.2991,"la2":30.254,"lo1":-89.0895,"lo2":-89.0444,"dy":0.0017,"dx":0.0017,"nx":28,"ny":28,"refTime":"2025-02-13T09:00:00:Z","depth":0,"parameterNumber":2,"parameterNumberName":"U-component_of_WINDS"},"data":[0,0,0,0,0,0,0,0,0,0,0,0,0,0,0,0,0,0,0,0,0,0,0,0,0,0,0,0,0,0,0,0,0,0,0,0,0,0,0,0,0,0,0,0,0,0,0,0,0,0,0,0,0,0,0,0,0,0,0.0464,0.0463,0,0.0414,0.0413,0.0413,0.0398,0.0398,0.0399,0.0399,0.0347,0.0346,0.0344,0,0,0,0,0,0,0,0,0,0,0,0,0,0.0546,0.0545,0.0464,0.0463,0.0462,0.0414,0.0413,0.0412,0.0398,0.0398,0.0399,0.0399,0.0348,0.0346,0.0344,0,0,0,0,0,0,0,0,0,0,0,0,0,0.0505,0.0544,0.0464,0.0449,0.0448,0.0414,0.0413,0.0412,0.0398,0.0398,0.0399,0.0399,0.0348,0.0346,0.0344,0.032,0,0,0.0336,0.0335,0,0,0,0,0,0,0,0,0.0507,0.0502,0.0452,0.045,0.0448,0.0413,0.0423,0.0381,0.0398,0.0417,0.0399,0.0399,0.0369,0.0364,0.0354,0.0318,0.0316,0.0336,0.0334,0.0333,0.0333,0,0,0,0,0,0,0,0.051,0.0504,0.0444,0.0451,0.0449,0.0445,0.044,0.0415,0.0391,0.0415,0.0414,0.0408,0.0368,0.0357,0.0353,0.0315,0.0336,0.0334,0.0332,0.0331,0.0258,0.0257,0,0,0,0,0,0,0.0515,0.0506,0.0445,0.0442,0.0479,0.0444,0.0437,0.0424,0.0391,0.0387,0.0408,0.0408,0.0361,0.0356,0.0351,0.0322,0.0333,0.0331,0.033,0.0258,0.0258,0.0257,0,0,0,0,0,0,0.0517,0.051,0.0447,0.0474,0.0466,0.0442,0.0426,0.0422,0.0411,0.0386,0.0381,0.0401,0.0361,0.0354,0.0328,0.032,0.033,0.0328,0.0259,0.0258,0.0258,0.0263,0,0,0,0,0,0,0.052,0.0511,0.0502,0.0474,0.0464,0.0425,0.0426,0.0421,0.0407,0.0407,0.0378,0.0374,0.0361,0.0332,0.0326,0.0317,0.0326,0.026,0.0259,0.0258,0.0264,0.0263,0.0262,0,0,0,0,0,0.0523,0.0505,0.0501,0.0494,0.0452,0.0425,0.042,0.0405,0.0407,0.0397,0.0381,0.0375,0.0322,0.033,0.0322,0.0312,0.026,0.0259,0.0258,0.0264,0.0263,0.0262,0,0,0,0,0,0,0.0532,0.0501,0.0496,0.0469,0.045,0.0423,0.041,0.0404,0.0383,0.0383,0.0366,0.0359,0.0334,0.0321,0.033,0.0289,0.0291,0.0288,0.0298,0.0297,0.0296,0.0299,0.0324,0,0,0,0,0,0.0531,0.0511,0.0485,0.0464,0.0455,0.0434,0.0422,0.0412,0.0391,0.0383,0.0364,0.0344,0.0323,0.0309,0.0288,0.0262,0.0256,0.0252,0.0251,0.0251,0.0248,0.0234,0.0232,0.0254,0.0254,0.0254,0,0,0.0528,0.0509,0.0498,0.0465,0.0449,0.0429,0.0427,0.0406,0.0391,0.0379,0.0353,0.034,0.0316,0.029,0.0277,0.0278,0.0241,0.0249,0.0249,0.0247,0.0232,0.023,0.0229,0.0253,0.0253,0.0253,0,0,0.0513,0.0497,0.0477,0.0461,0.0437,0.0424,0.042,0.0393,0.0384,0.0358,0.0349,0.0331,0.0295,0.0278,0.0265,0.0245,0.0239,0.0239,0.0235,0.0221,0.0219,0.0217,0.021,0.0208,0.0237,0.0237,0.0237,0,0.0513,0.0483,0.0468,0.0447,0.0434,0.0423,0.0403,0.0388,0.0358,0.0349,0.035,0.0305,0.0288,0.0258,0.0254,0.0244,0.0238,0.0242,0.022,0.0219,0.0217,0.021,0.0207,0.0237,0.0237,0.0237,0.0237,0,0.0483,0.0463,0.045,0.0422,0.0407,0.0386,0.0369,0.0355,0.0348,0.0334,0.0308,0.0288,0.0263,0.0256,0.0247,0.0225,0.0226,0.0224,0.0226,0.0215,0.0208,0.0205,0.0238,0.0238,0.0238,0.0237,0,0,0.0471,0.0436,0.0432,0.0419,0.0392,0.0376,0.0356,0.0332,0.0321,0.0301,0.0283,0.0254,0.0252,0.0237,0.0227,0.0215,0.0201,0.0215,0.0214,0.0213,0.0175,0.0176,0.0173,0.0197,0.0197,0.0196,0.0176,0,0.0453,0.0416,0.0403,0.0373,0.0353,0.0344,0.0326,0.0308,0.0295,0.0277,0.0263,0.0242,0.0242,0.0233,0.0221,0.0205,0.0193,0.0207,0.018,0.018,0.0186,0.0169,0.017,0.0152,0.0174,0.0173,0.0173,0,0.0425,0.0406,0.0374,0.035,0.0341,0.0326,0.0303,0.0286,0.0265,0.0257,0.0241,0.0233,0.0211,0.0215,0.0186,0.0195,0.0184,0.0175,0.0174,0.017,0.0175,0.0164,0.0146,0.0143,0.0168,0.0169,0.0169,0,0.0419,0.0385,0.0361,0.0351,0.0323,0.0312,0.03,0.028,0.0266,0.0247,0.0238,0.0216,0.0204,0.0187,0.0173,0.0177,0.0145,0.0147,0.0137,0.0137,0.013,0.013,0.0109,0.0124,0.0124,0.0124,0.0124,0,0.0399,0.038,0.0358,0.0344,0.0322,0.0308,0.0287,0.0274,0.0256,0.0239,0.023,0.0214,0.0196,0.0178,0.0167,0.0144,0.0139,0.0131,0.0129,0.0132,0.0133,0.0123,0.0124,0.0123,0.0123,0.0123,0.0123,0,0.0388,0.0373,0.0347,0.0323,0.0316,0.0301,0.028,0.0266,0.0254,0.0232,0.0226,0.0207,0.0185,0.017,0.0142,0.0134,0.011,0.0107,0.0117,0.0115,0.0105,0.0106,0.0077,0.0072,0.0091,0.0091,0.0091,0,0.0376,0.0361,0.0335,0.0323,0.0311,0.0292,0.0279,0.0264,0.0251,0.0227,0.0215,0.0193,0.0175,0.0141,0.0124,0.0103,0.0099,0.009,0.0096,0.01,0.0098,0.0099,0.0098,0.0089,0.0089,0.0089,0.0089,0,0.0355,0.0349,0.033,0.0309,0.0293,0.0276,0.0258,0.0249,0.0231,0.0217,0.0195,0.0181,0.0152,0.0131,0.0108,0.0095,0.0089,0.0088,0.0084,0.0086,0.0092,0.0089,0.0114,0.0088,0.0088,0.0088,0.0088,0.0088,0.0343,0.0329,0.0309,0.0289,0.0274,0.0258,0.0244,0.023,0.0212,0.0188,0.0181,0.0158,0.0138,0.0107,0.0095,0.0077,0.0077,0.0072,0.007,0.0069,0.0069,0.0096,0.0073,0.0073,0.0073,0.0073,0.0073,0,0.0322,0.0309,0.029,0.0266,0.025,0.0247,0.0227,0.0214,0.0194,0.0177,0.0159,0.0134,0.0113,0.0095,0.0074,0.0063,0.0059,0.0057,0.0058,0.0055,0.007,0.0075,0.0061,0.0061,0.0061,0.0061,0.0061,0.0061,0.0309,0.0285,0.0277,0.0247,0.0234,0.0212,0.0201,0.0186,0.0172,0.0145,0.0128,0.0116,0.0099,0.0076,0.0057,0.0052,0.0045,0.0043,0.0038,0.0052,0.0054,0.0055,0.006,0.0042,0.0042,0.0024,0.0024,0.0024]},{"header":{"parameterUnit":"m.s-1","parameterCategory":1,"la1":30.2991,"la2":30.254,"lo1":-89.0895,"lo2":-89.0444,"dy":0.0017,"dx":0.0017,"nx":28,"ny":28,"refTime":"2025-02-13T09:00:00:Z","depth":0,"parameterNumber":3,"parameterNumberName":"V-component_of_WINDS"},"data":[0,0,0,0,0,0,0,0,0,0,0,0,0,0,0,0,0,0,0,0,0,0,0,0,0,0,0,0,0,0,0,0,0,0,0,0,0,0,0,0,0,0,0,0,0,0,0,0,0,0,0,0,0,0,0,0,0,0,-7.416,-7.4161,0,-7.4253,-7.4254,-7.4255,-7.4205,-7.4203,-7.42,-7.4198,-7.4286,-7.4291,-7.4295,0,0,0,0,0,0,0,0,0,0,0,0,0,-7.3933,-7.3937,-7.4159,-7.4161,-7.4162,-7.4253,-7.4254,-7.4255,-7.4205,-7.4202,-7.4199,-7.4197,-7.4285,-7.429,-7.4296,0,0,0,0,0,0,0,0,0,0,0,0,0,-7.4029,-7.3939,-7.4159,-7.4148,-7.4148,-7.4253,-7.4254,-7.4256,-7.4206,-7.4202,-7.4199,-7.4195,-7.4283,-7.429,-7.4296,-7.4415,0,0,-7.4318,-7.4321,0,0,0,0,0,0,0,0,-7.4024,-7.4037,-7.4149,-7.4149,-7.4149,-7.4214,-7.4207,-7.4309,-7.4207,-7.4184,-7.4198,-7.4193,-7.4265,-7.4273,-7.4298,-7.4419,-7.4423,-7.4319,-7.4323,-7.4326,-7.4328,0,0,0,0,0,0,0,-7.4017,-7.4033,-7.4196,-7.415,-7.4151,-7.4137,-7.4146,-7.4226,-7.4244,-7.4186,-7.4182,-7.4194,-7.4264,-7.4292,-7.43,-7.4424,-7.4318,-7.4325,-7.4329,-7.4332,-7.465,-7.4654,0,0,0,0,0,0,-7.4012,-7.4028,-7.4193,-7.4199,-7.4076,-7.4144,-7.4155,-7.4197,-7.4243,-7.4247,-7.4197,-7.4192,-7.4282,-7.4292,-7.4303,-7.4447,-7.4326,-7.4332,-7.4336,-7.4646,-7.4651,-7.4655,0,0,0,0,0,0,-7.4007,-7.4027,-7.4189,-7.4113,-7.4132,-7.4152,-7.4199,-7.42,-7.4228,-7.4252,-7.4254,-7.4223,-7.4279,-7.4293,-7.4389,-7.4449,-7.4336,-7.4342,-7.4641,-7.4647,-7.4653,-7.4735,0,0,0,0,0,0,-7.4001,-7.4026,-7.4072,-7.4114,-7.4137,-7.4275,-7.4203,-7.4205,-7.4241,-7.4235,-7.4277,-7.428,-7.4277,-7.4379,-7.4396,-7.4457,-7.4347,-7.4635,-7.4644,-7.4651,-7.4727,-7.4743,-7.4757,0,0,0,0,0,-7.3993,-7.4089,-7.4075,-7.4095,-7.4195,-7.4279,-7.4292,-7.4289,-7.4246,-7.4293,-7.4308,-7.4278,-7.444,-7.4389,-7.4408,-7.4472,-7.4631,-7.4641,-7.465,-7.472,-7.474,-7.4757,0,0,0,0,0,0,-7.405,-7.4094,-7.4079,-7.4191,-7.4233,-7.427,-7.4328,-7.4309,-7.4361,-7.4352,-7.4344,-7.4354,-7.4454,-7.4472,-7.4414,-7.459,-7.4529,-7.4543,-7.4575,-7.4594,-7.4609,-7.4603,-7.4353,0,0,0,0,0,-7.4076,-7.4142,-7.4176,-7.4273,-7.4294,-7.4308,-7.4344,-7.4339,-7.438,-7.4396,-7.4419,-7.4458,-7.4518,-7.4557,-7.4613,-7.4729,-7.4738,-7.4783,-7.4798,-7.481,-7.4822,-7.4888,-7.4908,-7.4687,-7.4687,-7.4686,0,0,-7.4129,-7.4162,-7.4204,-7.4285,-7.4316,-7.4384,-7.4323,-7.4396,-7.4446,-7.4406,-7.45,-7.4518,-7.4561,-7.4668,-7.4716,-7.4686,-7.4886,-7.4822,-7.4832,-7.4838,-7.4899,-7.492,-7.4939,-7.4693,-7.4692,-7.4691,0,0,-7.4262,-7.4293,-7.4379,-7.4412,-7.4461,-7.447,-7.4491,-7.4533,-7.4545,-7.4639,-7.4611,-7.4669,-7.4772,-7.4805,-7.4835,-7.4985,-7.4959,-7.5003,-7.5082,-7.5146,-7.5163,-7.5179,-7.5233,-7.5253,-7.5014,-7.5015,-7.5015,0,-7.4322,-7.4425,-7.4424,-7.4501,-7.4538,-7.4509,-7.4595,-7.4626,-7.469,-7.4716,-7.4682,-7.4813,-7.4839,-7.4955,-7.4992,-7.5017,-7.504,-7.4998,-7.5161,-7.5177,-7.5191,-7.5243,-7.5264,-7.502,-7.5019,-7.5019,-7.5018,0,-7.4497,-7.457,-7.4632,-7.4699,-7.4743,-7.4824,-7.4834,-7.4878,-7.487,-7.4882,-7.4979,-7.5011,-7.5074,-7.5101,-7.5091,-7.5217,-7.5197,-7.5162,-7.51,-7.5217,-7.5266,-7.5286,-7.5027,-7.5025,-7.5024,-7.5022,0,0,-7.4666,-7.4735,-7.4758,-7.4789,-7.4843,-7.4898,-7.4978,-7.5043,-7.5082,-7.5127,-7.5194,-7.5284,-7.5253,-7.5288,-7.5282,-7.5338,-7.5457,-7.5297,-7.5298,-7.5327,-7.5598,-7.5625,-7.5648,-7.5441,-7.5444,-7.5447,-7.5595,0,-7.4804,-7.4948,-7.495,-7.5081,-7.5149,-7.5123,-7.5193,-7.5233,-7.5248,-7.5306,-7.532,-7.5385,-7.5339,-7.536,-7.5414,-7.5431,-7.5511,-7.542,-7.5502,-7.5505,-7.5494,-7.5673,-7.5701,-7.5839,-7.5614,-7.5617,-7.562,0,-7.4984,-7.504,-7.5179,-7.5226,-7.5255,-7.5318,-7.5379,-7.5435,-7.548,-7.5487,-7.5528,-7.5514,-7.5595,-7.5532,-7.5643,-7.5581,-7.5615,-7.5629,-7.5634,-7.5642,-7.557,-7.5687,-7.5883,-7.5904,-7.565,-7.5647,-7.5645,0,-7.5096,-7.5205,-7.5304,-7.5331,-7.5388,-7.5433,-7.5459,-7.55,-7.554,-7.5593,-7.5619,-7.568,-7.5713,-7.576,-7.5763,-7.5716,-7.5877,-7.5812,-7.5884,-7.5884,-7.5919,-7.5917,-7.6124,-7.5939,-7.5939,-7.5939,-7.5938,0,-7.525,-7.5336,-7.5355,-7.5416,-7.5512,-7.5514,-7.5608,-7.5629,-7.5668,-7.5731,-7.5711,-7.577,-7.5771,-7.5832,-7.5835,-7.5928,-7.5942,-7.5949,-7.5949,-7.5952,-7.5952,-7.5974,-7.5965,-7.5944,-7.5943,-7.5942,-7.5941,0,-7.5391,-7.5407,-7.5513,-7.556,-7.5574,-7.5643,-7.5682,-7.574,-7.5754,-7.5834,-7.5853,-7.5874,-7.5945,-7.5953,-7.6034,-7.6036,-7.6149,-7.6138,-7.6135,-7.6133,-7.6206,-7.6199,-7.6435,-7.6467,-7.6261,-7.6263,-7.6264,0,-7.5489,-7.5555,-7.5611,-7.5654,-7.5684,-7.5752,-7.5794,-7.5798,-7.5843,-7.5901,-7.5952,-7.6021,-7.6077,-7.6191,-7.6212,-7.6274,-7.6265,-7.6344,-7.6274,-7.6276,-7.6268,-7.6265,-7.6272,-7.6357,-7.6359,-7.6361,-7.6363,0,-7.5661,-7.5667,-7.573,-7.5798,-7.585,-7.5902,-7.5951,-7.5986,-7.5997,-7.6047,-7.6122,-7.6165,-7.6251,-7.632,-7.6382,-7.6406,-7.6387,-7.6385,-7.6405,-7.6409,-7.6405,-7.641,-7.6173,-7.6379,-7.6377,-7.6376,-7.6375,-7.6375,-7.5785,-7.5844,-7.5894,-7.5966,-7.6004,-7.6051,-7.6109,-7.6132,-7.6195,-7.6267,-7.6265,-7.6347,-7.6391,-7.6474,-7.6503,-7.6566,-7.654,-7.6568,-7.6576,-7.6583,-7.6592,-7.6395,-7.6577,-7.6576,-7.6576,-7.6575,-7.6575,0,-7.5958,-7.599,-7.6056,-7.6128,-7.6185,-7.6165,-7.6218,-7.6267,-7.634,-7.6385,-7.6442,-7.6528,-7.6596,-7.6624,-7.669,-7.6735,-7.6728,-7.6753,-7.675,-7.6756,-7.661,-7.6587,-7.6758,-7.6758,-7.6758,-7.6758,-7.6757,-7.6757,-7.6055,-7.6155,-7.6168,-7.6287,-7.6317,-7.64,-7.6433,-7.6476,-7.6513,-7.6611,-7.6669,-7.6688,-7.6726,-7.6796,-7.6857,-7.6864,-7.6889,-7.6919,-7.6921,-7.6784,-7.6766,-7.6748,-7.6726,-7.6924,-7.6924,-7.7062,-7.7063,-7.7064]}]]